Regional Weather Roundup
Issued by NWS

Home | Current Version | Previous Version | Graphics & Text | Print | Product List | Glossary On
Versions: 1 2 3 4 5 6 7 8 9 10 11 12 13 14 15 16 17 18 19 20 21 22 23 24 25 26 27 28 29 30 31 32 33 34 35 36 37 38 39 40 41 42 43 44 45 46 47 48 49 50
000
ASUS45 KBOU 292010
RWRCO

WEATHER ROUNDUP FOR COLORADO
NATIONAL WEATHER SERVICE PUEBLO CO
200 PM MDT WED JUL 29 2015

NOTE: "FAIR" INDICATES FEW OR NO CLOUDS BELOW 12000 FEET WITH NO
SIGNIFICANT WEATHER AND/OR OBSTRUCTIONS TO VISIBILITY.

COZ001>005-013-030-031-292100-
...NORTHWEST COLORADO...

CITY           SKY/WX    TMP DP  RH WIND       PRES   REMARKS
CRAIG          SUNNY     83  26  12 VRB3      30.35F
HAYDEN         SUNNY     77  27  15 W12       30.37F
MEEKER         SUNNY     83  20   9 W9        30.35F
MOUNT WERNER   NOT AVBL
STEAMBOAT SPGS FAIR      77  31  18 SW10      30.39S
WALDEN         FAIR      73  19  13 W9G16     30.46S
$$

COZ006>008-011-292100-
...WEST CENTRAL VALLEYS...

CITY           SKY/WX    TMP DP  RH WIND       PRES   REMARKS
GRAND JUNCTION SUNNY     87  24  10 VRB7      30.22F
MONTROSE       SUNNY     86  34  15 NW9       30.29F
EAGLE          MOSUNNY   82  27  13 S17G29    30.34F
RIFLE          SUNNY     87  28  12 VRB5      30.26F
DELTA          NOT AVBL
NUCLA          FAIR      88  25  10 N9        30.32F
$$

COZ017>023-064>068-292100-
...SOUTHWEST COLORADO...

CITY           SKY/WX    TMP DP  RH WIND       PRES   REMARKS
DURANGO        CLOUDY    80  44  27 S15G21    30.35S
CORTEZ         SUNNY     85  38  18 W8        30.27F
PAGOSA SPRINGS PTSUNNY   76  41  28 S9        30.43F
TELLURIDE      MOSUNNY   72  22  15 NW3       30.55S
WOLF CREEK PAS NOT AVBL
$$

COZ009-010-012-014-032>034-037-058>063-292100-
...CENTRAL COLORADO...

CITY           SKY/WX    TMP DP  RH WIND       PRES   REMARKS
ASPEN          SUNNY     79  35  20 N10       30.42F
BUENA VISTA    FAIR      79  36  20 E5G21     30.40F
COPPER MTN     MOSUNNY   64  27  24 W13G24    30.75S
BERTHOUD PASS  FAIR      52  41  66 NE5       30.80S
COTTONWOOD PAS MOSUNNY   73  37  27 SE13G23   30.56F
GUNNISON       SUNNY     81  30  16 SW12      30.41F
KREMMLING      MOSUNNY   82  14   7 W14G20    30.40F
LEADVILLE      SUNNY     71  27  19 N9G20     30.55F
MONARCH PASS   MOSUNNY   63  27  25 W16G30    30.84S
SALIDA         FAIR      80  47  31 E20G26    30.45F
NIWOT RIDGE    NOT AVBL
SUNLIGHT       SUNNY     68  34  28 SW7       30.69F
WILKERSON PASS MOSUNNY   66  36  32 W5        30.70F
$$

COZ069>075-292100-
...SAN LUIS VALLEY/SANGRE DE CRISTO MOUNTAINS...

CITY           SKY/WX    TMP DP  RH WIND       PRES   REMARKS
ALAMOSA        MOSUNNY   79  40  24 MISG      30.39S
LA VETA PASS   CLOUDY    57  46  67 MISG      30.63F
SAGUACHE       MOSUNNY   73  45  35 S3        30.42S
$$

COZ035-036-038>040-292100-
...NORTHERN COLORADO FRONT RANGE...

CITY           SKY/WX    TMP DP  RH WIND       PRES   REMARKS
DENVER INTL AP MOSUNNY   84  47  27 S20G29    30.26F
DMNS CITY PARK NOT AVBL
AURORA         MOSUNNY   81  50  33 S15G25    30.29F
FRONT RANGE AP MOSUNNY   81  46  30 SE25G31   30.30F
ERIE MUNI ARPT FAIR      84  44  24 CALM      30.24F
BOULDER MUN AP FAIR      81  46  30 N5        30.27F
CENTENNIAL     MOSUNNY   80  50  34 S22       30.30F
BROOMFIELD     MOSUNNY   84  48  28 W9        30.28F
LOVELAND       SUNNY     81  50  34 W3        30.26F
LONGMONT       FAIR      84  48  27 NW9       30.27F
$$

COZ041-046-047-076>085-087-088-292100-
...PIKES PEAK/PALMER DIVIDE AND SOUTHERN FOOTHILLS...

CITY           SKY/WX    TMP DP  RH WIND       PRES   REMARKS
COLO. SPRINGS  PTSUNNY   75  49  39 SE18G24   30.40F
A. F. ACADEMY  MOSUNNY   71  49  46 S16       30.41F
ELLICOTT       FAIR     N/A N/A N/A S16G22    30.39F
FALCON         FAIR      70  49  46 S14G22    30.45F
FORT CARSON    PTSUNNY   75  52  45 S9        30.37F
LIMON          SUNNY     76  46  34 SE17      30.37F
MONUMENT HILL  NOT AVBL
TRINIDAD       PTSUNNY   80  53  39 SE9       30.34F
$$

COZ042>045-048>051-090-091-292100-
...NORTHEAST COLORADO...

CITY           SKY/WX    TMP DP  RH WIND       PRES   REMARKS
GREELEY ARPT   MOSUNNY   88  50  27 S13G21    30.25F
AKRON          SUNNY     79  45  29 S24G33    30.31F
BURLINGTON     MOSUNNY   76  41  28 S16G23    30.33F
WRAY           FAIR      83  45  25 SE17      30.29F
STERLING       FAIR      82  46  28 S13       30.26F
HOLYOKE        FAIR      81  50  34 S13G22    30.29F
FORT MORGAN    FAIR      82  44  26 S21       30.29S
$$

COZ086-089-092>099-292100-
...SOUTHEAST COLORADO...

CITY           SKY/WX    TMP DP  RH WIND       PRES   REMARKS
PUEBLO         SUNNY     85  48  27 SE17G26   30.29F
LA JUNTA       SUNNY     84  45  25 MISG      30.28F
LAMAR          SUNNY     83  48  29 SE12G20   30.26F
SPRINGFIELD      N/A     80  50  34 MISG      30.29F
$$



USA.gov is the U.S. government's official web portal to all federal, state and local government web resources and services.